Home > Time Zones > World Clock > Weather > Mali > Bamako > Past weeks

Flag for Mali Weather past 2 weeks in Bamako, Mali

Now
91 °F

Passing clouds.


Feels Like: 89 °F
Forecast: N/A
Wind: 5 mph from South

Location: Bamako / Senou

Current Time: Apr 26, 2015 at 9:04:04 PM

Latest Report: Apr 26, 2015 at 8:30 PM


Visibility: N/A

Pressure: 29.86 "Hg

Humidity: 28%

Dew point: 54 °F

Location of BamakoLocation

Historic Weather in Bamako — Graph

°F

Bamako temperature yesterday

Maximum temperature yesterday: 106 °F (at 4:00 PM)
Minimum temperature yesterday: 84 °F (at 5:00 AM)
Average temperature yesterday: 93 °F

Past Weeks' High & Low Weather Summary

 TemperatureHumidityPressure
High106 °F (Apr 12, 1:30 PM)84% (Apr 21, 2:30 AM)30.01 "Hg (Apr 21, 2:30 AM)
Low72 °F (Apr 15, 6:00 AM)4% (Apr 15, 12:00 PM)29.77 "Hg (Apr 19, 4:00 PM)
Average91 °F23%29.89 "Hg
* Reported Apr 11 8:00 PM — Apr 26 8:00 PM, Bamako, Weather by CustomWeather, © 2015

Note: Actual official high and low records may vary slightly from our data, if they occured in-between our weather recording intervals... More about our weather records

Advertising

Bamako weather history for previous 24 hours

 ConditionsComfort  
Time TempWeatherWind HumidityBarometerVisibility
8:00 PM
Sun, Apr 26
91 °FPassing clouds.6 mph28%29.86 "HgN/A
7:30 PM93 °FPassing clouds.5 mph26%29.83 "HgN/A
7:00 PM93 °FPassing clouds.3 mph26%29.83 "HgN/A
6:30 PM95 °FScattered clouds.6 mph25%29.83 "HgN/A
6:00 PM95 °FScattered clouds.9 mph28%29.83 "HgN/A
5:30 PM99 °FPassing clouds.7 mph21%29.83 "HgN/A
5:00 PM97 °FPassing clouds.5 mph22%29.80 "HgN/A
4:30 PM93 °FScattered clouds.8 mph28%29.83 "HgN/A
4:00 PM93 °FThunderstorms. Scattered clouds.9 mph30%29.83 "HgN/A
3:30 PM93 °FThunderstorms. Scattered clouds.15 mph30%29.83 "HgN/A
3:00 PM99 °FThunderstorms. Broken clouds.17 mph24%29.83 "Hg1 mi
2:30 PM104 °FThunderstorms. Scattered clouds.6 mph15%29.83 "HgN/A
2:00 PM104 °FScattered clouds.8 mph16%29.86 "HgN/A
1:30 PM104 °FScattered clouds.6 mph19%29.86 "HgN/A
1:00 PM104 °FPassing clouds.5 mph17%29.89 "HgN/A
12:30 PM102 °FScattered clouds.9 mph21%29.89 "HgN/A
12:00 PM100 °FScattered clouds.9 mph24%29.92 "HgN/A
11:30 AM99 °FPassing clouds.12 mph25%29.92 "HgN/A
11:00 AM97 °FPassing clouds.12 mph30%29.92 "HgN/A
10:30 AM95 °FSunny.13 mph32%29.92 "Hg10 mi
10:00 AM93 °FSunny.14 mph36%29.95 "Hg10 mi
9:30 AM91 °FSunny.14 mph38%29.95 "Hg10 mi
9:00 AM90 °FSunny.13 mph38%29.95 "Hg10 mi
8:30 AM90 °FSunny.13 mph38%29.95 "Hg10 mi
8:00 AM88 °FPassing clouds.10 mph40%29.92 "HgN/A
7:30 AM86 °FSunny.8 mph43%29.92 "Hg10 mi
7:00 AM84 °FSunny.7 mph43%29.92 "Hg10 mi
6:30 AM84 °FSunny.8 mph43%29.92 "Hg10 mi
6:00 AM84 °FClear.9 mph45%29.92 "Hg10 mi
5:30 AM84 °FPassing clouds.6 mph43%29.89 "HgN/A
5:00 AM84 °FPassing clouds.7 mph43%29.89 "HgN/A
4:30 AM84 °FClear.5 mph43%29.86 "Hg10 mi
4:00 AM86 °FClear.5 mph40%29.86 "Hg10 mi
3:30 AM86 °FClear.6 mph40%29.86 "Hg10 mi
3:00 AM86 °FClear.7 mph40%29.86 "Hg10 mi
2:30 AM88 °FClear.9 mph35%29.89 "Hg10 mi
2:00 AM88 °FClear.8 mph33%29.89 "Hg10 mi
1:30 AM88 °FClear.6 mph27%29.89 "Hg10 mi
1:00 AM86 °FClear.1 mph33%29.89 "Hg10 mi
12:30 AM84 °FClear.1 mph33%29.92 "Hg10 mi
12:00 AM84 °FClear.2 mph37%29.92 "Hg10 mi
11:30 PM
Sat, Apr 25
86 °FClear.No wind35%29.92 "Hg10 mi
11:00 PM88 °FClear.No wind29%29.92 "Hg10 mi
10:30 PM90 °FClear.2 mph26%29.92 "Hg10 mi
10:00 PM90 °FClear.2 mph31%29.92 "Hg10 mi
9:00 PM93 °FClear.1 mph23%29.89 "Hg10 mi
Weather by CustomWeather, © 2015

See weather overviewHow to use our weather pages